[[{"header":{"parameterUnit":"m.s-1","parameterCategory":2,"la1":30.2991,"la2":30.254,"lo1":-89.0895,"lo2":-89.0444,"dy":0.0017,"dx":0.0017,"nx":28,"ny":28,"refTime":"2023-09-13T09:00:00:Z","depth":"0","parameterNumber":2,"parameterNumberName":"U-component_of_CURRENTS"},"data":[0,0,0,0,0,0,0,0,0,0,0,0,0,0,0,0,0,0,0,0,0,0,0,0,0,0,0,0,0,0,0,0,0,0,0,0,0,0,0,0,0,0,0,0,0,0,0,0,0,0,0,0,0,0,0,0,0,0,0.3405,0.3405,0,0.3378,0.3377,0.3377,0.3331,0.333,0.333,0.3329,0.3269,0.3268,0.3267,0,0,0,0,0,0,0,0,0,0,0,0,0,0.3397,0.3398,0.3405,0.3405,0.3405,0.3378,0.3377,0.3376,0.3331,0.333,0.3329,0.3329,0.3269,0.3268,0.3267,0,0,0,0,0,0,0,0,0,0,0,0,0,0.3385,0.3398,0.3405,0.3381,0.3379,0.3378,0.3377,0.3376,0.3331,0.333,0.3329,0.3328,0.327,0.3268,0.3266,0.3273,0,0,0.3261,0.3261,0,0,0,0,0,0,0,0,0.3386,0.3385,0.3385,0.3383,0.3381,0.336,0.3352,0.3341,0.3331,0.3346,0.3329,0.3328,0.3299,0.3295,0.3287,0.327,0.3267,0.3261,0.326,0.3259,0.3259,0,0,0,0,0,0,0,0.3387,0.3386,0.3391,0.3385,0.3383,0.3365,0.3363,0.335,0.3324,0.3344,0.3342,0.3344,0.3297,0.3289,0.3285,0.3266,0.3261,0.326,0.3259,0.3258,0.3302,0.3304,0,0,0,0,0,0,0.3399,0.3387,0.3392,0.339,0.3385,0.3367,0.3363,0.3365,0.3325,0.3319,0.3345,0.3342,0.3292,0.3287,0.3283,0.3312,0.3259,0.3258,0.3257,0.33,0.3302,0.3305,0,0,0,0,0,0,0.3399,0.34,0.3393,0.3391,0.3389,0.3368,0.337,0.3365,0.336,0.3326,0.3319,0.3346,0.3291,0.3285,0.3282,0.3308,0.3257,0.3256,0.3297,0.3301,0.3304,0.3354,0,0,0,0,0,0,0.3399,0.34,0.3406,0.3392,0.339,0.3395,0.3371,0.3365,0.3364,0.336,0.3325,0.3318,0.329,0.3285,0.3281,0.3305,0.3254,0.3294,0.3299,0.3303,0.335,0.3359,0.3366,0,0,0,0,0,0.3399,0.3407,0.3406,0.3407,0.3398,0.3396,0.3393,0.3373,0.3365,0.3365,0.3348,0.3319,0.3308,0.3285,0.3279,0.3304,0.3293,0.3298,0.3302,0.3346,0.3357,0.3366,0,0,0,0,0,0,0.3403,0.3403,0.3402,0.3409,0.3407,0.3389,0.339,0.3382,0.3369,0.3365,0.3334,0.3326,0.3337,0.3321,0.3297,0.3334,0.3301,0.3305,0.3337,0.3347,0.3355,0.3353,0.3253,0,0,0,0,0,0.341,0.3415,0.3415,0.3419,0.3423,0.3411,0.3409,0.3398,0.3386,0.3379,0.3356,0.3348,0.3355,0.3349,0.3343,0.3355,0.3367,0.3375,0.3383,0.339,0.3389,0.3436,0.3448,0.3321,0.3321,0.332,0,0,0.3406,0.3414,0.3411,0.3421,0.3417,0.3422,0.3406,0.3407,0.3409,0.3376,0.337,0.337,0.3366,0.338,0.3386,0.3367,0.3441,0.3396,0.3402,0.3397,0.3442,0.3454,0.3465,0.3324,0.3323,0.3323,0,0,0.3408,0.3416,0.3423,0.3429,0.3437,0.3433,0.3439,0.3429,0.3423,0.3428,0.3416,0.3436,0.3424,0.3433,0.3438,0.3494,0.3484,0.3497,0.353,0.3576,0.3586,0.3596,0.3654,0.3667,0.35,0.35,0.35,0,0.3406,0.3415,0.3423,0.3438,0.3442,0.3442,0.3448,0.3451,0.3439,0.3444,0.3432,0.3457,0.3454,0.3491,0.3515,0.3511,0.3536,0.3487,0.3585,0.3594,0.3603,0.366,0.3674,0.3503,0.3502,0.3502,0.3502,0,0.3412,0.3423,0.3429,0.3447,0.3457,0.346,0.3472,0.348,0.3481,0.3482,0.3513,0.3519,0.3534,0.3552,0.3547,0.3612,0.3612,0.359,0.3554,0.3618,0.3675,0.3689,0.3507,0.3506,0.3505,0.3504,0,0,0.339,0.3424,0.3423,0.3435,0.3459,0.3464,0.3489,0.3507,0.3524,0.3533,0.3559,0.3596,0.3602,0.3611,0.3618,0.3663,0.376,0.3654,0.3655,0.3701,0.3875,0.3794,0.3801,0.3749,0.3752,0.3753,0.39,0,0.3386,0.3411,0.3427,0.3443,0.3458,0.3477,0.3496,0.3519,0.3541,0.3567,0.3601,0.3626,0.3624,0.3641,0.3688,0.3735,0.3795,0.3723,0.3814,0.3817,0.3727,0.3813,0.355,0.365,0.3913,0.3916,0.3917,0,0.3381,0.3402,0.3416,0.3448,0.3454,0.3463,0.3501,0.3519,0.357,0.3592,0.3635,0.3652,0.3725,0.371,0.3832,0.3784,0.384,0.3878,0.3884,0.3793,0.376,0.3625,0.3665,0.3514,0.3939,0.3937,0.3935,0,0.3362,0.3391,0.3399,0.3409,0.3446,0.3457,0.3475,0.3524,0.3538,0.3613,0.3635,0.3712,0.3744,0.383,0.3898,0.3879,0.4026,0.4008,0.3995,0.3991,0.3776,0.3747,0.3663,0.4107,0.4107,0.4106,0.4106,0,0.3351,0.3357,0.3389,0.3395,0.34,0.3442,0.3457,0.3494,0.3546,0.3573,0.3639,0.3677,0.3772,0.3849,0.3927,0.3999,0.4054,0.402,0.4024,0.3789,0.3762,0.3625,0.3593,0.4112,0.4111,0.411,0.4109,0,0.3319,0.3344,0.3351,0.3383,0.339,0.3393,0.3423,0.3441,0.3502,0.3546,0.3569,0.3663,0.377,0.3859,0.4003,0.4015,0.3971,0.4121,0.3844,0.3811,0.3636,0.3617,0.3489,0.3405,0.4143,0.4142,0.4141,0,0.3301,0.3304,0.3321,0.3321,0.3329,0.3343,0.3352,0.3409,0.3435,0.3536,0.3555,0.366,0.3731,0.3894,0.3921,0.4032,0.3927,0.3854,0.3765,0.3601,0.3585,0.3478,0.3409,0.3524,0.3519,0.3514,0.351,0,0.326,0.3261,0.3265,0.3261,0.3266,0.3272,0.3298,0.3303,0.3383,0.3424,0.3509,0.3579,0.3692,0.3652,0.3745,0.3785,0.3599,0.3759,0.3643,0.3143,0.2964,0.289,0.3481,0.3466,0.3471,0.3474,0.3476,0.3478,0.3212,0.3197,0.3198,0.3187,0.3196,0.3197,0.3167,0.3204,0.3223,0.324,0.3393,0.3408,0.3382,0.3463,0.3481,0.3247,0.336,0.3109,0.3125,0.3052,0.2866,0.3377,0.3325,0.3328,0.3331,0.3333,0.3336,0,0.3142,0.3139,0.3128,0.3109,0.3092,0.3124,0.312,0.3063,0.304,0.3091,0.3136,0.3039,0.294,0.2907,0.2708,0.2594,0.2506,0.2508,0.2263,0.2255,0.2733,0.2594,0.2309,0.2309,0.2309,0.231,0.231,0.231,0.3108,0.3074,0.3067,0.3012,0.3002,0.2935,0.2912,0.2826,0.281,0.2673,0.258,0.2587,0.2501,0.2288,0.2054,0.2026,0.1893,0.1762,0.1889,0.2164,0.2219,0.2271,0.2128,0.175,0.1749,0.1223,0.1219,0.1216]},{"header":{"parameterUnit":"m.s-1","parameterCategory":2,"la1":30.2991,"la2":30.254,"lo1":-89.0895,"lo2":-89.0444,"dy":0.0017,"dx":0.0017,"nx":28,"ny":28,"refTime":"2023-09-13T09:00:00:Z","depth":"0","parameterNumber":3,"parameterNumberName":"V-component_of_CURRENTS"},"data":[0,0,0,0,0,0,0,0,0,0,0,0,0,0,0,0,0,0,0,0,0,0,0,0,0,0,0,0,0,0,0,0,0,0,0,0,0,0,0,0,0,0,0,0,0,0,0,0,0,0,0,0,0,0,0,0,0,0,-0.0058,-0.0058,0,-0.0058,-0.0058,-0.0058,-0.0087,-0.0088,-0.0089,-0.0089,-0.0147,-0.0147,-0.0148,0,0,0,0,0,0,0,0,0,0,0,0,0,-0.0104,-0.0103,-0.0058,-0.0058,-0.0058,-0.0058,-0.0058,-0.0058,-0.0087,-0.0088,-0.0089,-0.009,-0.0146,-0.0147,-0.0148,0,0,0,0,0,0,0,0,0,0,0,0,0,-0.0093,-0.0102,-0.0058,-0.0072,-0.0073,-0.0058,-0.0058,-0.0058,-0.0087,-0.0088,-0.0089,-0.009,-0.0146,-0.0147,-0.0149,-0.0137,0,0,-0.0153,-0.0153,0,0,0,0,0,0,0,0,-0.0093,-0.0091,-0.007,-0.0071,-0.0072,-0.0073,-0.0095,-0.0087,-0.0087,-0.0083,-0.0089,-0.009,-0.0126,-0.0129,-0.0127,-0.0139,-0.0142,-0.0153,-0.0154,-0.0154,-0.0155,0,0,0,0,0,0,0,-0.0094,-0.0091,-0.0059,-0.0069,-0.0071,-0.0084,-0.0084,-0.0093,-0.01,-0.0083,-0.0085,-0.0083,-0.0127,-0.0126,-0.0129,-0.0143,-0.0153,-0.0154,-0.0155,-0.0155,-0.0134,-0.0133,0,0,0,0,0,0,-0.0089,-0.0092,-0.0059,-0.0059,-0.0084,-0.0083,-0.0082,-0.0072,-0.0099,-0.0103,-0.0082,-0.0084,-0.0123,-0.0127,-0.0131,-0.0104,-0.0154,-0.0156,-0.0156,-0.0135,-0.0134,-0.0132,0,0,0,0,0,0,-0.009,-0.0086,-0.0059,-0.0075,-0.0073,-0.008,-0.0069,-0.0072,-0.0069,-0.0097,-0.0103,-0.0076,-0.0124,-0.0129,-0.0135,-0.0107,-0.0156,-0.0157,-0.0137,-0.0135,-0.0133,-0.0059,0,0,0,0,0,0,-0.0091,-0.0086,-0.0076,-0.0074,-0.0071,-0.0039,-0.0068,-0.0071,-0.0065,-0.0068,-0.0095,-0.0101,-0.0125,-0.0133,-0.0137,-0.011,-0.0158,-0.0139,-0.0136,-0.0134,-0.0064,-0.0055,-0.0048,0,0,0,0,0,-0.0093,-0.0074,-0.0075,-0.0072,-0.0058,-0.0038,-0.0037,-0.0048,-0.0064,-0.0051,-0.0075,-0.01,-0.0119,-0.0133,-0.0138,-0.0111,-0.014,-0.0137,-0.0134,-0.0067,-0.0057,-0.0048,0,0,0,0,0,0,-0.0091,-0.0075,-0.0077,-0.0055,-0.0042,-0.0042,-0.0033,-0.004,-0.0047,-0.0055,-0.0088,-0.0095,-0.0086,-0.0108,-0.0122,-0.0096,-0.0131,-0.0128,-0.0079,-0.0069,-0.0061,-0.0043,-0.016,0,0,0,0,0,-0.0084,-0.0065,-0.0052,-0.0034,-0.0026,-0.0027,-0.0022,-0.0026,-0.0032,-0.0036,-0.0054,-0.0071,-0.0075,-0.0081,-0.0089,-0.0079,-0.0092,-0.0062,-0.0054,-0.0047,-0.0035,-0.0039,-0.003,-0.0122,-0.0122,-0.0122,0,0,-0.008,-0.0067,-0.0058,-0.0032,-0.0027,-0.0004,-0.0026,-0.001,0.0009,-0.0041,-0.0027,-0.0045,-0.0065,-0.0051,-0.0049,-0.0068,-0.0025,-0.0043,-0.0038,-0.0028,-0.0035,-0.0026,-0.0018,-0.012,-0.012,-0.0121,0,0,-0.0061,-0.0048,-0.0026,-0.0008,0.001,0.0016,0.0025,0.0032,0.0037,0.0051,0.0023,0.0024,0.0012,0.0009,0.0004,0.0052,0.0018,0.0048,0.0099,0.0095,0.0103,0.0109,0.0117,0.0123,0.005,0.005,0.005,0,-0.0057,-0.0026,-0.0017,0.001,0.003,0.0029,0.0059,0.0071,0.0074,0.009,0.0065,0.0068,0.0047,0.0072,0.0087,0.0071,0.0061,0.0063,0.0106,0.0111,0.0117,0.0123,0.0129,0.0054,0.0053,0.0053,0.0053,0,-0.0024,0.0004,0.0021,0.0057,0.0081,0.0109,0.0129,0.015,0.0153,0.0164,0.019,0.0163,0.0162,0.0162,0.0137,0.0171,0.015,0.0116,0.0081,0.013,0.0134,0.0139,0.0059,0.0058,0.0057,0.0056,0,0,-0.0008,0.0035,0.0044,0.0073,0.0111,0.0138,0.0179,0.0225,0.0259,0.0261,0.03,0.0298,0.0279,0.0273,0.0243,0.0243,0.0272,0.0198,0.0196,0.0205,0.0271,0.0281,0.0286,0.0237,0.0238,0.0238,0.0263,0,0.002,0.0073,0.009,0.0153,0.019,0.0211,0.0253,0.0293,0.0317,0.0354,0.0348,0.0367,0.0322,0.0319,0.0314,0.0279,0.0286,0.0269,0.0222,0.0221,0.0223,0.0293,0.0302,0.0326,0.0267,0.0268,0.0268,0,0.0058,0.0092,0.0148,0.0215,0.0233,0.0267,0.0343,0.038,0.0431,0.0446,0.0462,0.0451,0.0461,0.0406,0.0386,0.0372,0.0335,0.0307,0.0306,0.0294,0.0241,0.0265,0.0337,0.0257,0.0276,0.0275,0.0274,0,0.0081,0.0143,0.019,0.0212,0.0278,0.0313,0.035,0.041,0.0454,0.0502,0.053,0.0533,0.053,0.049,0.0442,0.0407,0.0421,0.0359,0.0341,0.0341,0.0331,0.0329,0.0321,0.0355,0.0355,0.0355,0.0355,0,0.012,0.0165,0.0203,0.0236,0.0307,0.034,0.0416,0.0455,0.0509,0.0578,0.057,0.0618,0.0547,0.0547,0.0485,0.0448,0.0454,0.0377,0.0356,0.0359,0.0359,0.0272,0.022,0.0356,0.0356,0.0356,0.0355,0,0.015,0.017,0.0236,0.0298,0.0322,0.0375,0.0452,0.0506,0.0548,0.0633,0.065,0.0681,0.0693,0.0641,0.059,0.0509,0.0437,0.0453,0.0473,0.0455,0.0339,0.0291,0.0287,0.0263,0.0427,0.0427,0.0428,0,0.0171,0.0203,0.0275,0.0314,0.0345,0.0415,0.0468,0.0523,0.0583,0.0688,0.0735,0.0775,0.0852,0.0794,0.0674,0.0597,0.0497,0.0505,0.0438,0.0364,0.0295,0.0266,0.0244,0.0456,0.0457,0.0457,0.0458,0,0.0219,0.0237,0.0285,0.0353,0.0413,0.0485,0.056,0.0614,0.0697,0.0793,0.0925,0.1004,0.0967,0.0924,0.0793,0.0699,0.0458,0.0511,0.0426,0.0328,0.0305,0.0262,0.0411,0.0462,0.0462,0.0462,0.0461,0.0461,0.0252,0.0285,0.0334,0.0402,0.047,0.0554,0.0626,0.0733,0.0864,0.1055,0.1093,0.1284,0.1139,0.0988,0.0831,0.0522,0.0521,0.041,0.0363,0.0345,0.0313,0.0489,0.0516,0.0516,0.0516,0.0516,0.0516,0,0.029,0.0318,0.0379,0.0462,0.0536,0.0566,0.0691,0.0796,0.0986,0.1221,0.1393,0.1477,0.1299,0.1042,0.0629,0.0416,0.0322,0.0287,0.0232,0.0218,0.0366,0.0357,0.0362,0.0362,0.0363,0.0363,0.0363,0.0363,0.031,0.0363,0.0385,0.05,0.056,0.0676,0.0755,0.0951,0.1149,0.1476,0.1665,0.178,0.1558,0.0849,0.0376,0.0258,0.0119,0.0093,0.0035,0.0103,0.011,0.0117,0.0096,0.0047,0.0046,-0.009,-0.0091,-0.0093]}],[{"header":{"parameterUnit":"m.s-1","parameterCategory":2,"la1":30.2991,"la2":30.254,"lo1":-89.0895,"lo2":-89.0444,"dy":0.0017,"dx":0.0017,"nx":28,"ny":28,"refTime":"2023-09-13T09:00:00:Z","depth":"2","parameterNumber":2,"parameterNumberName":"U-component_of_CURRENTS"},"data":[0,0,0,0,0,0,0,0,0,0,0,0,0,0,0,0,0,0,0,0,0,0,0,0,0,0,0,0,0,0,0,0,0,0,0,0,0,0,0,0,0,0,0,0,0,0,0,0,0,0,0,0,0,0,0,0,0,0,0.242,0.2421,0,0.254,0.2541,0.2542,0.2624,0.2625,0.2625,0.2626,0.2607,0.2606,0.2605,0,0,0,0,0,0,0,0,0,0,0,0,0,0.2291,0.2292,0.242,0.2421,0.2423,0.254,0.2541,0.2543,0.2624,0.2625,0.2626,0.2626,0.2607,0.2606,0.2605,0,0,0,0,0,0,0,0,0,0,0,0,0,0.2371,0.2293,0.2419,0.2479,0.2485,0.2539,0.2541,0.2543,0.2624,0.2625,0.2626,0.2627,0.2608,0.2606,0.2604,0.2572,0,0,0.2599,0.2598,0,0,0,0,0,0,0,0,0.2366,0.2375,0.2468,0.2475,0.2482,0.2569,0.2489,0.2546,0.2623,0.2569,0.2626,0.2627,0.2582,0.2582,0.2602,0.2571,0.257,0.2599,0.2598,0.2597,0.2596,0,0,0,0,0,0,0,0.236,0.2371,0.2466,0.247,0.2478,0.251,0.2522,0.2501,0.2564,0.2574,0.2581,0.2596,0.2584,0.2604,0.2602,0.257,0.2599,0.2597,0.2596,0.2595,0.2692,0.2695,0,0,0,0,0,0,0.2346,0.2365,0.2462,0.2469,0.2427,0.2511,0.2525,0.2539,0.2568,0.2575,0.2595,0.26,0.2606,0.2604,0.2601,0.2688,0.2597,0.2595,0.2594,0.2688,0.2692,0.2696,0,0,0,0,0,0,0.2343,0.2353,0.2457,0.2421,0.2437,0.2512,0.2528,0.2541,0.2596,0.2586,0.259,0.2641,0.2607,0.2604,0.2632,0.2683,0.2594,0.2593,0.2684,0.2689,0.2694,0.278,0,0,0,0,0,0,0.2339,0.2351,0.2378,0.242,0.2439,0.2523,0.2527,0.2542,0.2602,0.261,0.2624,0.2623,0.2608,0.2635,0.2631,0.2679,0.2591,0.2679,0.2686,0.2693,0.2773,0.2788,0.2801,0,0,0,0,0,0.2333,0.2362,0.2379,0.2392,0.2466,0.2525,0.2538,0.2593,0.2603,0.2643,0.2658,0.2624,0.2676,0.2636,0.263,0.2678,0.2676,0.2684,0.2692,0.2767,0.2785,0.2801,0,0,0,0,0,0,0.2334,0.2374,0.2393,0.2437,0.2492,0.254,0.2591,0.2609,0.2654,0.2672,0.2647,0.2647,0.2702,0.2681,0.2637,0.2735,0.2679,0.2686,0.2738,0.2755,0.2769,0.276,0.259,0,0,0,0,0,0.2341,0.2377,0.2417,0.2467,0.2493,0.2544,0.2581,0.2618,0.2653,0.2678,0.2684,0.2703,0.2725,0.2732,0.275,0.2775,0.2742,0.2815,0.2829,0.2841,0.2835,0.2871,0.2887,0.2723,0.2723,0.2723,0,0,0.236,0.2389,0.2413,0.2471,0.2521,0.2555,0.2571,0.2648,0.2684,0.2661,0.2724,0.2748,0.2748,0.2803,0.2825,0.2789,0.2865,0.2851,0.286,0.2848,0.2881,0.2897,0.291,0.2728,0.2727,0.2727,0,0,0.2389,0.2441,0.2463,0.2505,0.2579,0.261,0.2633,0.2696,0.2742,0.2789,0.2805,0.2863,0.2871,0.2906,0.2912,0.301,0.2944,0.3027,0.3074,0.311,0.3123,0.3133,0.3073,0.3078,0.3026,0.3026,0.3026,0,0.2416,0.2442,0.2487,0.2514,0.2559,0.2627,0.2662,0.2713,0.2782,0.282,0.2823,0.291,0.2921,0.2985,0.3039,0.3039,0.3014,0.3,0.3124,0.3135,0.3144,0.308,0.3084,0.3031,0.303,0.303,0.3029,0,0.2427,0.2474,0.2504,0.2551,0.2602,0.2667,0.2723,0.2794,0.2846,0.2884,0.2982,0.3018,0.3063,0.31,0.3091,0.3184,0.3127,0.314,0.3069,0.3165,0.3092,0.3095,0.3038,0.3037,0.3035,0.3034,0,0,0.2405,0.2495,0.2502,0.2544,0.2635,0.2677,0.2758,0.2844,0.2903,0.2981,0.303,0.3132,0.3167,0.3181,0.3207,0.325,0.3296,0.3227,0.3227,0.3143,0.3307,0.3179,0.3168,0.3333,0.3336,0.3337,0.3212,0,0.2407,0.2464,0.2504,0.2581,0.2624,0.2717,0.2782,0.2874,0.2952,0.3016,0.3088,0.3154,0.319,0.3229,0.3282,0.3303,0.3314,0.3324,0.3247,0.3243,0.31,0.3172,0.2966,0.2832,0.3214,0.3215,0.3215,0,0.2365,0.2426,0.2495,0.2614,0.2641,0.2698,0.2836,0.2902,0.3011,0.3063,0.3145,0.319,0.3273,0.3283,0.3347,0.3351,0.3335,0.3337,0.3332,0.3184,0.3123,0.281,0.2822,0.3218,0.3218,0.3218,0.3217,0,0.2297,0.2405,0.2473,0.2513,0.2651,0.2718,0.28,0.2929,0.2989,0.3096,0.3131,0.323,0.3262,0.3307,0.3325,0.3346,0.3339,0.3362,0.3212,0.3198,0.299,0.2955,0.3387,0.3387,0.3387,0.3387,0.3388,0,0.2263,0.2311,0.2461,0.2498,0.2596,0.2699,0.28,0.2896,0.2996,0.3028,0.3153,0.3164,0.3282,0.3292,0.3304,0.3244,0.3322,0.3212,0.3179,0.301,0.2981,0.3302,0.3294,0.3383,0.3384,0.3385,0.3385,0,0.2175,0.2267,0.2345,0.2508,0.2564,0.2633,0.278,0.2828,0.2959,0.299,0.302,0.3119,0.3146,0.3208,0.3237,0.3193,0.3168,0.3116,0.2861,0.2801,0.2991,0.299,0.294,0.2935,0.2931,0.2927,0.2924,0,0.2141,0.2177,0.233,0.2368,0.2451,0.2566,0.2623,0.2781,0.2806,0.2928,0.2896,0.298,0.2953,0.2938,0.2931,0.2894,0.3022,0.2647,0.2681,0.2984,0.2956,0.2962,0.2966,0.2411,0.2404,0.2398,0.2393,0,0.207,0.2122,0.2176,0.2263,0.2333,0.2405,0.2497,0.2494,0.2625,0.2674,0.2647,0.2653,0.2676,0.255,0.2555,0.2522,0.2653,0.2527,0.2926,0.257,0.248,0.2455,0.2477,0.2343,0.2348,0.2351,0.2354,0.2356,0.1989,0.2007,0.2062,0.2121,0.2198,0.2203,0.2196,0.2242,0.2248,0.2258,0.2316,0.2272,0.2297,0.2201,0.2127,0.2128,0.2325,0.2238,0.2258,0.2284,0.2259,0.2169,0.1962,0.1965,0.1967,0.1969,0.1971,0,0.1867,0.1886,0.1922,0.198,0.1991,0.2109,0.2077,0.2019,0.1951,0.1965,0.1946,0.1751,0.1687,0.177,0.1683,0.1672,0.1701,0.1617,0.1647,0.1698,0.1743,0.1695,0.1245,0.1243,0.1241,0.1239,0,0,0.1802,0.1758,0.177,0.1742,0.1825,0.1783,0.1738,0.1677,0.1625,0.1491,0.1468,0.156,0.1653,0.139,0.1377,0.1292,0.1483,0.1247,0.1832,0.1913,0.1955,0.2103,0.2086,0,0,0,0,0]},{"header":{"parameterUnit":"m.s-1","parameterCategory":2,"la1":30.2991,"la2":30.254,"lo1":-89.0895,"lo2":-89.0444,"dy":0.0017,"dx":0.0017,"nx":28,"ny":28,"refTime":"2023-09-13T09:00:00:Z","depth":"2","parameterNumber":3,"parameterNumberName":"V-component_of_CURRENTS"},"data":[0,0,0,0,0,0,0,0,0,0,0,0,0,0,0,0,0,0,0,0,0,0,0,0,0,0,0,0,0,0,0,0,0,0,0,0,0,0,0,0,0,0,0,0,0,0,0,0,0,0,0,0,0,0,0,0,0,0,0.0224,0.0223,0,0.0159,0.0159,0.0158,0.0097,0.0096,0.0096,0.0095,0.0008,0.0006,0.0004,0,0,0,0,0,0,0,0,0,0,0,0,0,0.024,0.024,0.0224,0.0223,0.0223,0.016,0.0159,0.0157,0.0097,0.0096,0.0095,0.0095,0.0008,0.0006,0.0004,0,0,0,0,0,0,0,0,0,0,0,0,0,0.0209,0.0241,0.0224,0.0186,0.0182,0.016,0.0158,0.0157,0.0097,0.0096,0.0095,0.0094,0.0009,0.0006,0.0004,0.0006,0,0,-0.0004,-0.0005,0,0,0,0,0,0,0,0,0.0211,0.0208,0.0192,0.0189,0.0184,0.0137,0.0132,0.0106,0.0097,0.0127,0.0095,0.0094,0.0051,0.0045,0.0032,0.0001,-0.0002,-0.0004,-0.0006,-0.0007,-0.0008,0,0,0,0,0,0,0,0.0213,0.021,0.0197,0.0192,0.0187,0.0154,0.0149,0.0127,0.0093,0.0125,0.0121,0.0117,0.0048,0.0035,0.003,-0.0004,-0.0004,-0.0007,-0.0008,-0.0009,-0.0077,-0.0077,0,0,0,0,0,0,0.0229,0.0213,0.0199,0.0195,0.0198,0.0155,0.0149,0.0151,0.0094,0.0085,0.0117,0.0114,0.004,0.0033,0.0026,0.0012,-0.0007,-0.001,-0.0011,-0.0077,-0.0077,-0.0077,0,0,0,0,0,0,0.0229,0.0228,0.0201,0.0203,0.0197,0.0156,0.0159,0.0151,0.0126,0.0089,0.0079,0.0101,0.0039,0.003,0.0003,0.0009,-0.0011,-0.0013,-0.0076,-0.0077,-0.0077,-0.0007,0,0,0,0,0,0,0.023,0.0229,0.023,0.0205,0.0198,0.0189,0.016,0.015,0.0127,0.0121,0.0072,0.0063,0.0037,0.0008,0.0001,0.0005,-0.0015,-0.0076,-0.0077,-0.0077,-0.0009,-0.0005,-0.0001,0,0,0,0,0,0.0231,0.024,0.0231,0.0228,0.0203,0.0189,0.0183,0.0148,0.0127,0.0122,0.0087,0.0064,-0.0,0.0006,-0.0002,0.0001,-0.0076,-0.0076,-0.0077,-0.0011,-0.0006,-0.0002,0,0,0,0,0,0,0.0233,0.0234,0.0223,0.0228,0.021,0.018,0.0171,0.0148,0.0116,0.0105,0.0066,0.0056,0.0034,0.0005,0.0013,-0.0022,-0.0044,-0.0046,0.0009,0.0013,0.0017,0.0064,-0.0018,0,0,0,0,0,0.024,0.0252,0.0238,0.0237,0.0234,0.0201,0.0188,0.0166,0.0138,0.0121,0.0085,0.0049,0.0028,0.0011,-0.0017,-0.0031,-0.0035,-0.0038,-0.0034,-0.0031,0.0,0.0006,0.0014,-0.0079,-0.0079,-0.0079,0,0,0.0237,0.024,0.0243,0.0239,0.0222,0.0228,0.019,0.0173,0.0172,0.0119,0.0097,0.0061,0.0026,0.001,-0.0003,-0.0014,-0.0012,-0.0031,-0.0027,0.0002,0.0006,0.0016,0.0024,-0.0079,-0.0079,-0.0079,0,0,0.0251,0.0244,0.0265,0.026,0.0247,0.0234,0.0232,0.02,0.018,0.0159,0.0123,0.0102,0.0049,0.004,0.0028,0.0037,0.0009,0.0006,0.0066,0.0071,0.008,0.0087,0.0079,0.0085,0.0008,0.0008,0.0008,0,0.0251,0.0271,0.0263,0.0281,0.0281,0.0244,0.0259,0.0241,0.0199,0.0199,0.0158,0.0118,0.0076,0.0093,0.0086,0.0052,0.004,0.0055,0.008,0.0088,0.0095,0.0084,0.009,0.0011,0.0011,0.0011,0.001,0,0.0283,0.0295,0.0304,0.0325,0.0325,0.0325,0.0313,0.03,0.0268,0.0255,0.0247,0.0198,0.0182,0.0153,0.012,0.0145,0.0115,0.0087,0.0078,0.0109,0.0094,0.01,0.0016,0.0015,0.0014,0.0013,0,0,0.0309,0.0327,0.033,0.0349,0.0347,0.0355,0.0362,0.0371,0.0389,0.0344,0.0379,0.0326,0.0302,0.0288,0.0243,0.024,0.0255,0.0183,0.0182,0.0194,0.0255,0.0193,0.0193,0.0228,0.0229,0.0231,0.022,0,0.0339,0.0385,0.0381,0.0419,0.0446,0.0424,0.0441,0.0443,0.043,0.0451,0.0426,0.0427,0.0354,0.0343,0.0336,0.0285,0.0276,0.0261,0.0209,0.0208,0.0165,0.02,0.0213,0.0202,0.0226,0.0226,0.0227,0,0.0382,0.0412,0.0451,0.0486,0.0495,0.0501,0.0534,0.0542,0.0566,0.0559,0.057,0.0548,0.0555,0.0478,0.0438,0.0428,0.0352,0.0304,0.0302,0.0234,0.0157,0.0176,0.0211,0.0236,0.0235,0.0235,0.0234,0,0.0429,0.0465,0.0498,0.0508,0.0538,0.0543,0.0549,0.0569,0.0598,0.063,0.0662,0.0663,0.0668,0.0602,0.0489,0.0464,0.0441,0.0391,0.027,0.0263,0.0263,0.0254,0.0366,0.0366,0.0366,0.0366,0.0366,0,0.0473,0.0501,0.0516,0.0538,0.0584,0.0582,0.0626,0.0633,0.0677,0.075,0.0716,0.0781,0.0697,0.0668,0.0552,0.0436,0.0485,0.0304,0.0269,0.0282,0.0275,0.0295,0.0287,0.0365,0.0365,0.0366,0.0366,0,0.0507,0.0515,0.0567,0.0597,0.0605,0.0632,0.0668,0.072,0.0732,0.0831,0.085,0.0883,0.084,0.073,0.0632,0.0513,0.0404,0.0337,0.035,0.0316,0.0208,0.0203,0.0227,0.0225,0.0223,0.0222,0.0221,0,0.0523,0.0555,0.0607,0.0639,0.0641,0.0677,0.0721,0.0745,0.0816,0.0905,0.0983,0.0968,0.0983,0.0808,0.0611,0.041,0.0379,0.0271,0.0223,0.0237,0.02,0.0198,0.0196,0.0245,0.0244,0.0243,0.0243,0,0.057,0.0583,0.0624,0.0688,0.0731,0.0801,0.086,0.0925,0.099,0.1066,0.1176,0.1183,0.1021,0.0851,0.0554,0.0413,0.0306,0.0246,0.0293,0.0263,0.0249,0.0213,0.0212,0.0236,0.0237,0.0237,0.0237,0.0238,0.0598,0.0629,0.0683,0.0736,0.0806,0.0907,0.0965,0.1066,0.1179,0.128,0.1303,0.128,0.1086,0.0697,0.0486,0.0243,0.0245,0.015,0.0155,0.016,0.015,0.0132,0.0095,0.0095,0.0095,0.0095,0.0094,0,0.0635,0.0664,0.0728,0.0803,0.0891,0.0908,0.1057,0.1129,0.1265,0.1339,0.1388,0.1167,0.096,0.0716,0.0359,0.0147,0.0145,0.0073,0.0133,0.014,0.0146,0.0137,0.0078,0.0078,0.0077,0.0077,0,0,0.0649,0.071,0.0735,0.0858,0.0906,0.102,0.1096,0.1217,0.1299,0.1355,0.132,0.1266,0.0991,0.0728,0.0467,0.0278,0.025,0.0227,0.0259,0.0368,0.0376,0.0205,0.02,0,0,0,0,0]}],[{"header":{"parameterUnit":"m.s-1","parameterCategory":2,"la1":30.2991,"la2":30.254,"lo1":-89.0895,"lo2":-89.0444,"dy":0.0017,"dx":0.0017,"nx":28,"ny":28,"refTime":"2023-09-13T09:00:00:Z","depth":"4","parameterNumber":2,"parameterNumberName":"U-component_of_CURRENTS"},"data":[0,0,0,0,0,0,0,0,0,0,0,0,0,0,0,0,0,0,0,0,0,0,0,0,0,0,0,0,0,0,0,0,0,0,0,0,0,0,0,0,0,0,0,0,0,0,0,0,0,0,0,0,0,0,0,0,0,0,0.0605,0.0605,0,0.0597,0.0597,0.0596,0.0606,0.0606,0.0607,0.0607,0.0677,0.0679,0.068,0,0,0,0,0,0,0,0,0,0,0,0,0,0.0616,0.0616,0.0605,0.0605,0.0605,0.0597,0.0597,0.0596,0.0606,0.0606,0.0607,0.0607,0.0677,0.0678,0.068,0,0,0,0,0,0,0,0,0,0,0,0,0,0.0608,0.0616,0.0605,0.061,0.0611,0.0597,0.0597,0.0596,0.0605,0.0606,0.0607,0.0608,0.0676,0.0678,0.068,0.0678,0,0,0.0687,0.0688,0,0,0,0,0,0,0,0,0.0609,0.0608,0.0609,0.061,0.061,0.0605,0.0626,0.0628,0.0605,0.0606,0.0607,0.0608,0.0661,0.0664,0.0657,0.0681,0.0684,0.0687,0.0688,0.0689,0.069,0,0,0,0,0,0,0,0.0609,0.0608,0.06,0.061,0.061,0.0608,0.0608,0.0626,0.0629,0.0606,0.0607,0.0608,0.0661,0.0655,0.0659,0.0685,0.0687,0.0689,0.069,0.0691,0.0766,0.0767,0,0,0,0,0,0,0.0613,0.0609,0.0601,0.06,0.0613,0.0608,0.0607,0.0604,0.0627,0.0631,0.0608,0.0609,0.0651,0.0657,0.0662,0.0732,0.0689,0.0691,0.0692,0.0766,0.0766,0.0767,0,0,0,0,0,0,0.0614,0.0613,0.0601,0.0606,0.0605,0.0607,0.0603,0.0604,0.0611,0.0628,0.0634,0.0616,0.0652,0.0659,0.071,0.0732,0.0692,0.0694,0.0765,0.0766,0.0767,0.0826,0,0,0,0,0,0,0.0614,0.0613,0.0623,0.0606,0.0605,0.0603,0.0603,0.0603,0.0611,0.0612,0.0637,0.0643,0.0653,0.0707,0.0712,0.0734,0.0695,0.0764,0.0765,0.0767,0.0823,0.0829,0.0834,0,0,0,0,0,0.0614,0.0616,0.0623,0.0623,0.0614,0.0604,0.0603,0.0606,0.061,0.0615,0.0649,0.0643,0.0719,0.071,0.0716,0.0739,0.0763,0.0765,0.0766,0.0821,0.0828,0.0834,0,0,0,0,0,0,0.0621,0.0617,0.0624,0.0625,0.0623,0.0607,0.0617,0.0612,0.0636,0.0657,0.0664,0.0673,0.0727,0.072,0.071,0.0762,0.0735,0.0738,0.0774,0.0781,0.0786,0.0815,0.0697,0,0,0,0,0,0.0629,0.0638,0.0627,0.0633,0.0635,0.0629,0.0629,0.0634,0.0647,0.0658,0.0676,0.0702,0.0733,0.0749,0.0775,0.0804,0.0809,0.0817,0.0823,0.0827,0.0853,0.0888,0.09,0.0773,0.0773,0.0773,0,0,0.0638,0.0636,0.0644,0.0638,0.0641,0.0643,0.0631,0.0644,0.066,0.0665,0.0707,0.0732,0.0748,0.0792,0.0812,0.0792,0.086,0.083,0.0834,0.0858,0.0891,0.0904,0.0915,0.0774,0.0774,0.0774,0,0,0.0646,0.0656,0.0662,0.0665,0.0676,0.0672,0.0677,0.0677,0.0696,0.0741,0.075,0.0786,0.0828,0.0837,0.0849,0.0894,0.0896,0.09,0.0947,0.098,0.0992,0.1002,0.1001,0.1011,0.0893,0.0893,0.0893,0,0.0654,0.066,0.0663,0.0667,0.0679,0.0684,0.0694,0.0708,0.073,0.076,0.0771,0.0847,0.0849,0.0897,0.0919,0.0908,0.093,0.0922,0.099,0.1,0.101,0.1007,0.1017,0.0896,0.0896,0.0896,0.0895,0,0.066,0.0675,0.068,0.0692,0.0704,0.0719,0.0736,0.0762,0.0795,0.0819,0.0897,0.0918,0.0963,0.0958,0.0963,0.1023,0.1017,0.1001,0.0977,0.1027,0.1019,0.1028,0.0901,0.09,0.0899,0.0898,0,0,0.0643,0.0678,0.068,0.0701,0.0725,0.0732,0.0774,0.0811,0.0852,0.0906,0.0972,0.1018,0.105,0.1064,0.1063,0.1089,0.1152,0.109,0.109,0.1097,0.1228,0.1155,0.1158,0.117,0.1173,0.1175,0.1187,0,0.0646,0.0661,0.0683,0.0717,0.0729,0.0765,0.0803,0.0851,0.0902,0.097,0.1022,0.1088,0.1082,0.1118,0.1153,0.1159,0.1186,0.115,0.1174,0.1174,0.1111,0.117,0.1183,0.1194,0.1196,0.1198,0.1199,0,0.063,0.0652,0.0681,0.0741,0.0753,0.0782,0.0855,0.0899,0.0993,0.1041,0.1125,0.1172,0.1232,0.1222,0.1277,0.1269,0.1271,0.1266,0.1265,0.1193,0.1121,0.114,0.1216,0.1215,0.1213,0.1212,0.1211,0,0.0597,0.0645,0.0675,0.0693,0.0761,0.0801,0.085,0.093,0.0979,0.1098,0.1143,0.124,0.129,0.1329,0.1337,0.1325,0.1396,0.1354,0.1286,0.1278,0.1312,0.1301,0.141,0.141,0.141,0.141,0.141,0,0.0571,0.0602,0.0671,0.0688,0.075,0.0811,0.0885,0.0943,0.104,0.1103,0.1192,0.1239,0.1333,0.1381,0.1379,0.1369,0.1425,0.1319,0.1294,0.133,0.1321,0.1317,0.1306,0.141,0.141,0.141,0.141,0,0.0534,0.057,0.0616,0.0699,0.0731,0.0787,0.0888,0.0935,0.1029,0.1113,0.1155,0.1264,0.1324,0.1382,0.1435,0.1397,0.1393,0.1374,0.1411,0.1383,0.1236,0.1228,0.1288,0.1286,0.1284,0.1283,0.1282,0,0.0513,0.053,0.0614,0.064,0.0686,0.077,0.0815,0.0922,0.0967,0.1099,0.113,0.1239,0.1299,0.1314,0.1377,0.1384,0.1368,0.1351,0.1305,0.1264,0.1233,0.1227,0.1222,0.1279,0.1278,0.1278,0.1277,0,0.0483,0.0518,0.0557,0.0604,0.0654,0.0698,0.0778,0.0806,0.0931,0.102,0.1087,0.1139,0.1214,0.1269,0.1309,0.1299,0.1354,0.1332,0.1334,0.1291,0.1253,0.1223,0.1219,0.1271,0.1272,0.1273,0.1273,0,0.0461,0.0477,0.0513,0.0563,0.0601,0.0608,0.0667,0.073,0.0794,0.0957,0.0977,0.1088,0.1203,0.1224,0.1242,0.1257,0.1224,0.117,0.1181,0.1188,0.1154,0.109,0.1059,0,0,0,0,0,0.0437,0.044,0.0463,0.0487,0.0516,0.0537,0.0623,0.0685,0.0816,0.0842,0.0912,0.0978,0.1043,0.1097,0.1092,0.1175,0.1213,0.1161,0.1151,0.1238,0.1245,0.1216,0,0,0,0,0,0,0.0416,0.0426,0.0438,0.0406,0.0409,0.0424,0.0474,0.0566,0.0596,0.0744,0.0792,0.0901,0.0981,0.1033,0.1064,0.1082,0.1053,0.1238,0.1236,0.1234,0.124,0.1246,0.1218,0,0,0,0,0]},{"header":{"parameterUnit":"m.s-1","parameterCategory":2,"la1":30.2991,"la2":30.254,"lo1":-89.0895,"lo2":-89.0444,"dy":0.0017,"dx":0.0017,"nx":28,"ny":28,"refTime":"2023-09-13T09:00:00:Z","depth":"4","parameterNumber":3,"parameterNumberName":"V-component_of_CURRENTS"},"data":[0,0,0,0,0,0,0,0,0,0,0,0,0,0,0,0,0,0,0,0,0,0,0,0,0,0,0,0,0,0,0,0,0,0,0,0,0,0,0,0,0,0,0,0,0,0,0,0,0,0,0,0,0,0,0,0,0,0,0.0292,0.0292,0,0.027,0.027,0.027,0.0272,0.0272,0.0273,0.0273,0.0238,0.0237,0.0236,0,0,0,0,0,0,0,0,0,0,0,0,0,0.0282,0.0283,0.0292,0.0292,0.0292,0.027,0.027,0.027,0.0271,0.0272,0.0273,0.0273,0.0239,0.0237,0.0236,0,0,0,0,0,0,0,0,0,0,0,0,0,0.0275,0.0283,0.0292,0.0291,0.0291,0.027,0.027,0.0269,0.0271,0.0272,0.0273,0.0273,0.0239,0.0237,0.0235,0.0208,0,0,0.0229,0.0228,0,0,0,0,0,0,0,0,0.0275,0.0275,0.0292,0.0291,0.0291,0.0276,0.0254,0.0249,0.0271,0.0277,0.0273,0.0274,0.025,0.0247,0.024,0.0207,0.0205,0.0229,0.0228,0.0227,0.0226,0,0,0,0,0,0,0,0.0276,0.0276,0.0282,0.0292,0.0291,0.0274,0.0274,0.0253,0.0259,0.0277,0.0277,0.0277,0.025,0.0242,0.0239,0.0205,0.0229,0.0227,0.0226,0.0225,0.0161,0.0161,0,0,0,0,0,0,0.0284,0.0277,0.0283,0.0282,0.0287,0.0274,0.0274,0.0279,0.0259,0.0257,0.0276,0.0277,0.0245,0.0241,0.0238,0.023,0.0227,0.0225,0.0224,0.0162,0.0161,0.0161,0,0,0,0,0,0,0.0284,0.0285,0.0284,0.0279,0.0278,0.0274,0.0279,0.0278,0.0281,0.0259,0.0257,0.0282,0.0245,0.024,0.0224,0.0228,0.0224,0.0222,0.0162,0.0161,0.0161,0.0198,0,0,0,0,0,0,0.0284,0.0285,0.0292,0.028,0.0279,0.0281,0.0278,0.0277,0.028,0.0281,0.0263,0.026,0.0245,0.0228,0.0222,0.0225,0.022,0.0163,0.0162,0.0161,0.0198,0.0199,0.02,0,0,0,0,0,0.0283,0.029,0.0292,0.0293,0.0289,0.0281,0.0279,0.0276,0.0279,0.0281,0.0267,0.0261,0.0218,0.0226,0.022,0.0222,0.0163,0.0162,0.0161,0.0197,0.0199,0.02,0,0,0,0,0,0,0.0285,0.029,0.0293,0.03,0.0296,0.0282,0.0283,0.0281,0.0271,0.0274,0.0255,0.025,0.0237,0.0219,0.0228,0.0198,0.0189,0.0187,0.0219,0.022,0.0221,0.0233,0.0219,0,0,0,0,0,0.029,0.03,0.0296,0.0302,0.0302,0.0294,0.0292,0.0291,0.028,0.0277,0.0265,0.0246,0.0224,0.0216,0.0196,0.0179,0.0154,0.0175,0.0176,0.0177,0.0182,0.0143,0.0141,0.0157,0.0157,0.0157,0,0,0.0292,0.0296,0.0301,0.0304,0.03,0.0301,0.0295,0.0295,0.0296,0.0273,0.0271,0.0251,0.022,0.0204,0.0196,0.0193,0.0158,0.0176,0.0178,0.0181,0.0142,0.014,0.0139,0.0156,0.0156,0.0157,0,0,0.03,0.0305,0.0317,0.0314,0.0316,0.031,0.0315,0.0308,0.0307,0.0298,0.028,0.0261,0.0236,0.0212,0.0195,0.0187,0.0165,0.0184,0.0202,0.0164,0.0163,0.0162,0.0125,0.012,0.0185,0.0185,0.0185,0,0.0304,0.0319,0.0317,0.0324,0.0327,0.0318,0.0328,0.0317,0.0307,0.0305,0.0305,0.026,0.0237,0.0207,0.0208,0.0191,0.0169,0.0203,0.0167,0.0165,0.0163,0.0126,0.012,0.0187,0.0187,0.0187,0.0186,0,0.0316,0.0331,0.0335,0.0346,0.0345,0.035,0.0342,0.0339,0.0339,0.0331,0.0312,0.0277,0.0254,0.024,0.0224,0.0197,0.0186,0.0175,0.0169,0.0164,0.0125,0.0118,0.0189,0.0189,0.0188,0.0188,0,0,0.0323,0.0343,0.0346,0.0362,0.036,0.0365,0.036,0.0357,0.0362,0.0342,0.0343,0.0298,0.0288,0.0267,0.024,0.0209,0.0173,0.0195,0.0192,0.0167,0.0094,0.0106,0.0099,0.0162,0.0161,0.016,0.0071,0,0.0339,0.0363,0.0366,0.0391,0.0405,0.0395,0.0397,0.039,0.0381,0.0376,0.0335,0.0326,0.0295,0.0292,0.0252,0.0194,0.0158,0.0198,0.0094,0.009,0.0109,0.0093,0.0157,0.0066,0.0065,0.0063,0.0063,0,0.0347,0.037,0.0401,0.043,0.0436,0.0449,0.0455,0.046,0.0438,0.0429,0.0402,0.0374,0.0323,0.0306,0.0194,0.0225,0.0166,0.0117,0.0113,0.0108,0.009,0.007,0.005,0.0051,0.0052,0.0053,0.0053,0,0.0358,0.0392,0.0425,0.0432,0.0459,0.0476,0.0492,0.0482,0.0493,0.0473,0.047,0.0403,0.0381,0.029,0.0191,0.0194,0.0072,0.0058,0.0007,0.0006,0.0007,0.0009,-0.0019,-0.0019,-0.0019,-0.0019,-0.0018,0,0.0369,0.0398,0.0441,0.0461,0.0509,0.0517,0.0558,0.0553,0.0556,0.057,0.0512,0.0493,0.0381,0.0299,0.0199,0.0083,0.0071,0.0007,-0.0015,0.0023,0.0028,0.0001,0.0005,-0.0022,-0.0021,-0.0021,-0.002,0,0.0373,0.04,0.0447,0.0496,0.052,0.0559,0.0614,0.0635,0.063,0.0644,0.0642,0.0563,0.0456,0.0331,0.0184,0.0105,-0.0014,-0.005,0.0002,-0.0016,-0.006,-0.0053,-0.0125,-0.0125,-0.0125,-0.0125,-0.0126,0,0.0373,0.0401,0.0475,0.0516,0.0549,0.0611,0.0651,0.0674,0.0695,0.0679,0.0681,0.0597,0.0528,0.0322,0.0189,-0.0003,-0.0025,-0.0088,-0.0077,-0.0055,-0.0071,-0.0064,-0.0058,-0.0126,-0.0126,-0.0126,-0.0126,0,0.0386,0.0418,0.0459,0.0537,0.06,0.0664,0.0724,0.0741,0.0763,0.0758,0.0712,0.0609,0.0493,0.0331,0.0193,0.0052,-0.005,-0.0091,-0.0091,-0.0082,-0.0058,-0.0072,-0.0065,-0.0127,-0.0127,-0.0127,-0.0127,0,0.0395,0.0425,0.0486,0.0552,0.0627,0.0692,0.0727,0.0755,0.0779,0.0763,0.0747,0.0617,0.0552,0.0359,0.0221,0.0095,0.0059,0.0015,0.0008,0.0008,0.0077,0.0129,0.0096,0,0,0,0,0,0.0406,0.0442,0.0496,0.0574,0.0642,0.0692,0.0759,0.0785,0.0807,0.0784,0.077,0.0661,0.0468,0.0378,0.0254,0.0204,0.0029,0.0053,-0.0026,-0.0132,-0.0131,-0.0071,0,0,0,0,0,0,0.0417,0.0472,0.0492,0.0576,0.0627,0.0711,0.0755,0.0777,0.0766,0.0765,0.0664,0.0628,0.0438,0.054,0.025,0.0212,0.0144,-0.0033,-0.0036,-0.0132,-0.0131,-0.0131,-0.0069,0,0,0,0,0]}]]